Weather History for KFAR - December, 2013

Change the Weather History Date:

Sunday, December 29, 2013

  Actual Average Record
Temperature  
Mean Temperature -11 °F 10 °F  
Max Temperature -6 °F 19 °F 52 °F (1999)
Min Temperature -16 °F 2 °F -36 °F (1887)
Degree Days  
Heating Degree Days 76 55  
Month to date heating degree days 1728 1469  
Since 1 July heating degree days 3569 3431  
Cooling Degree Days 0 0  
Month to date cooling degree days 0 0  
Year to date cooling degree days 699 551  
Moisture  
Dew Point -19 °F    
Average Humidity 64    
Maximum Humidity 70    
Minimum Humidity 57    
Precipitation  
Precipitation 0.00 in 0.03 in 0.42 in (1972)
Month to date precipitation 1.17 0.78  
Year to date precipitation 32.06 22.56  
Snow  
Snow 0.00 in 0.40 in 4.40 in (1972)
Month to date snowfall 15.5 10.4  
Since 1 July snowfall 15.8 19.0  
Snow Depth 8.00 in    
Sea Level Pressure  
Sea Level Pressure 30.46 in    
Wind  
Wind Speed 9 mph (West)    
Max Wind Speed 30 mph    
Max Gust Speed 33 mph    
Visibility 10 miles    
Events      
T = Trace of Precipitation, MM = Missing Value Source: NWS Daily Summary

Daily Weather History Graph

Daily Weather History Graph

Search for Another Location

Airport or City:

Trip Planner

Search our weather history database for the weather conditions in past years. The results will help you decide how hot, cold, wet, or windy it might be!

Date:

Astronomy

Dec. 29, 2013 Rise Set
Actual Time 8:12 AM CST 4:46 PM CST
Civil Twilight 7:37 AM CST 5:21 PM CST
Nautical Twilight 6:58 AM CST 6:00 PM CST
Astronomical Twilight 6:21 AM CST 6:37 PM CST
Moon 4:52 AM CST (12/29) 2:30 PM CST (12/29)
Length of Visible Light 9h 44m
Length of Day
8h 34m
Waning Crescent, 11% of the Moon is Illuminated
Dec 29
Waning Crescent
Jan 1
New
Jan 7
First Quarter
Jan 15
Full
Jan 23
Last Quarter

Hourly Weather History & Observations

Time (CST) Temp. Windchill Dew Point Humidity Pressure Visibility Wind Dir Wind Speed Gust Speed Precip Events Conditions
12:53 AM -13.0 °F -40.6 °F -20.9 °F 68% 30.52 in 10.0 mi NNW 23.0 mph - N/A   Partly Cloudy
1:53 AM -11.9 °F -40.6 °F -20.0 °F 67% 30.53 in 10.0 mi NNW 26.5 mph - N/A   Overcast
2:53 AM -11.9 °F -36.8 °F -20.0 °F 67% 30.55 in 10.0 mi North 18.4 mph - N/A   Overcast
3:53 AM -11.9 °F -36.1 °F -20.0 °F 67% 30.57 in 10.0 mi NNW 17.3 mph - N/A   Mostly Cloudy
4:53 AM -11.0 °F -34.9 °F -18.9 °F 68% 30.57 in 10.0 mi NNW 17.3 mph - N/A   Overcast
5:53 AM -11.0 °F -32.7 °F -20.0 °F 64% 30.56 in 10.0 mi NNW 13.8 mph - N/A   Overcast
6:53 AM -13.0 °F -32.4 °F -22.0 °F 64% 30.56 in 10.0 mi NNW 10.4 mph - N/A   Clear
7:53 AM -15.0 °F -29.3 °F -23.1 °F 67% 30.56 in 10.0 mi NW 5.8 mph - N/A   Clear
8:53 AM -16.1 °F - -23.1 °F 71% 30.56 in 10.0 mi Calm Calm - N/A   Clear
9:53 AM -13.0 °F -25.1 °F -22.0 °F 64% 30.56 in 10.0 mi West 4.6 mph - N/A   Clear
10:53 AM -9.9 °F - -18.9 °F 65% 30.54 in 10.0 mi Calm Calm - N/A   Clear
11:53 AM -9.0 °F -22.3 °F -18.9 °F 62% 30.52 in 10.0 mi WSW 5.8 mph - N/A   Clear
12:53 PM -7.1 °F -23.9 °F -18.0 °F 59% 30.49 in 10.0 mi WSW 9.2 mph - N/A   Clear
1:53 PM -6.0 °F -20.1 °F -16.1 °F 62% 30.45 in 10.0 mi West 6.9 mph - N/A   Clear
2:53 PM -6.0 °F -21.5 °F -16.1 °F 62% 30.42 in 10.0 mi WSW 8.1 mph - N/A   Clear
3:53 PM -7.1 °F -21.4 °F -17.0 °F 62% 30.41 in 10.0 mi West 6.9 mph - N/A   Clear
4:53 PM -9.0 °F -22.3 °F -18.0 °F 65% 30.39 in 10.0 mi SW 5.8 mph - N/A   Clear
5:53 PM -9.9 °F -21.5 °F -18.9 °F 65% 30.37 in 10.0 mi South 4.6 mph - N/A   Clear
6:53 PM -11.0 °F -24.6 °F -18.9 °F 68% 30.35 in 10.0 mi South 5.8 mph - N/A   Clear
7:53 PM -11.9 °F -28.7 °F -20.0 °F 67% 30.35 in 10.0 mi South 8.1 mph - N/A   Clear
8:53 PM -11.0 °F -26.2 °F -18.9 °F 68% 30.33 in 10.0 mi South 6.9 mph - N/A   Clear
9:53 PM -9.9 °F -24.9 °F -18.0 °F 68% 30.30 in 10.0 mi SSE 6.9 mph - N/A   Clear
10:53 PM -9.9 °F -26.3 °F -18.0 °F 68% 30.30 in 10.0 mi South 8.1 mph - N/A   Clear
11:53 PM -11.0 °F -24.6 °F -18.0 °F 71% 30.28 in 10.0 mi SSE 5.8 mph - N/A   Clear